Flag for Sweden Weather past 2 weeks in Norrköping, Sweden

43 °F


Feels Like: 43 °F
Forecast: 38 / 50 °F
Wind: No wind

Location: Norrkoping Airport

Current Time: Oct 10, 2015 at 10:34:19 PM

Latest Report: Oct 10, 2015 at 9:50 PM

Visibility: N/A

Pressure: 30.42 "Hg

Humidity: 87%

Dew point: 39 °F

Location of NorrköpingLocation

Historic Weather in Norrköping — Graph


Norrköping temperature yesterday

Maximum temperature yesterday: 50 °F (at 12:50 PM)
Minimum temperature yesterday: 28 °F (at 11:20 PM)
Average temperature yesterday: 41 °F

Past Weeks' High & Low Weather Summary

High64 °F (Oct 2, 2:50 PM)100% (Sep 26, 2:50 AM)30.74 "Hg (Sep 26, 2:50 AM)
Low25 °F (Oct 10, 3:50 AM)47% (Oct 8, 12:20 PM)29.89 "Hg (Oct 2, 2:20 PM)
Average48 °F80%30.28 "Hg
* Reported Sep 25 9:20 PM — Oct 10 9:20 PM, Norrköping, Weather by CustomWeather, © 2015

Note: Actual official high and low records may vary slightly from our data, if they occured in-between our weather recording intervals... More about our weather records


Norrköping weather history for previous 24 hours

Time TempWeatherWind HumidityBarometerVisibility
9:20 PM
Sat, Oct 10
43 °FOvercast.2 mph81%30.42 "HgN/A
8:50 PM43 °FOvercast.1 mph81%30.39 "HgN/A
8:20 PM43 °FOvercast.2 mph81%30.39 "HgN/A
7:50 PM43 °FMostly cloudy.2 mph81%30.39 "HgN/A
7:20 PM43 °FMostly cloudy.No wind81%30.39 "HgN/A
6:50 PM43 °FMore clouds than sun.1 mph76%30.39 "HgN/A
6:20 PM45 °FPartly sunny.2 mph71%30.39 "HgN/A
5:50 PM46 °FPartly sunny.1 mph66%30.39 "HgN/A
5:20 PM46 °FPartly sunny.2 mph66%30.39 "HgN/A
4:50 PM46 °FPartly sunny.3 mph62%30.39 "HgN/A
4:20 PM48 °FPartly sunny.2 mph62%30.39 "HgN/A
3:50 PM48 °FSunny.3 mph58%30.42 "Hg10 mi
3:20 PM48 °FPartly sunny.2 mph58%30.42 "HgN/A
2:50 PM48 °FMostly cloudy.2 mph62%30.42 "HgN/A
2:20 PM48 °FOvercast.2 mph58%30.42 "HgN/A
1:50 PM46 °FMostly cloudy.3 mph62%30.42 "HgN/A
1:20 PM48 °FMostly cloudy.2 mph58%30.42 "HgN/A
12:50 PM46 °FOvercast.2 mph66%30.42 "HgN/A
12:20 PM46 °FOvercast.No wind76%30.42 "HgN/A
11:50 AM45 °FSunny.No wind81%30.45 "Hg10 mi
11:20 AM43 °FSunny.No wind87%30.45 "Hg10 mi
10:50 AM41 °FSunny.No wind93%30.45 "Hg10 mi
10:20 AM39 °FSunny.No wind93%30.45 "Hg10 mi
9:50 AM37 °FSunny.No wind100%30.45 "Hg10 mi
9:20 AM36 °FSunny.No wind100%30.45 "Hg10 mi
8:50 AM32 °FSunny.No wind100%30.45 "Hg10 mi
8:20 AM30 °FSunny.1 mph100%30.45 "Hg10 mi
7:50 AM28 °FClear.No wind100%30.45 "Hg10 mi
7:20 AM27 °FClear.No wind100%30.45 "Hg10 mi
6:50 AM25 °FPassing clouds.No wind100%30.45 "Hg5 mi
6:20 AM25 °FCold.No wind100%30.45 "Hg2 mi
5:50 AM27 °FChilly.No wind100%30.45 "HgN/A
5:20 AM25 °FCold.No wind100%30.45 "HgN/A
4:50 AM25 °FCold.1 mph100%30.45 "Hg2 mi
4:20 AM25 °FLight fog.No wind100%30.45 "Hg1 mi
3:50 AM25 °FLight fog.1 mph100%30.45 "Hg1 mi
3:20 AM27 °FLight fog.No wind100%30.45 "Hg1 mi
2:50 AM27 °FLight fog.No wind100%30.45 "Hg3 mi
2:20 AM27 °FLight fog.No wind100%30.45 "Hg0 mi
1:50 AM27 °FLight fog.No wind100%30.45 "Hg0 mi
1:20 AM28 °FChilly.No wind100%30.45 "Hg2 mi
12:50 AM28 °FIce fog.No wind100%30.45 "Hg3 mi
12:20 AM28 °FIce fog.No wind100%30.45 "Hg3 mi
11:20 PM
Fri, Oct 9
28 °FClear.No wind100%30.45 "Hg10 mi
10:50 PM30 °FClear.No wind100%30.45 "Hg10 mi
10:20 PM32 °FClear.No wind93%30.45 "Hg10 mi
Weather by CustomWeather, © 2015

See weather overviewHow to use our weather pages